Location: Blue Sky Observatory
(43.1153°N, 70.9036°W)
Time: 08:46:42
(UTC-05:00)

Amateur Radio Satellites - All Passes

Search period start: 09 February 2016 08:16
Search period end: 10 February 2016 08:16
Location: Blue Sky Observatory, 43.1153°N, 70.9036°W

Satellite Date Start Highest point End Downlink Frequencies (MHz)
Time Altitude Azimuth
HO-68 09 Feb 08:21:46 08:29:02 87° 106° (ESE) 08:36:14 435.675
CUBEBUG 2 09 Feb 08:27:36 08:31:31 38° 98° (E) 08:35:28 437.445
UWE-3 09 Feb 08:30:17 08:33:59 29° 96° (E) 08:37:44 435.000/436.395/437.385
Oscar 11 09 Feb 08:33:53 08:37:43 30° 96° (E) 08:41:33 145.826/435.025
COMPASS 1 09 Feb 08:40:21 08:44:35 78° 284° (WNW) 08:48:48 437.405
AO-85 09 Feb 08:42:10 08:43:37 11° 104° (ESE) 08:45:05 145.980
UNISAT 6 09 Feb 08:45:04 08:49:02 36° 70° (ENE) 08:52:58 437.425
CUTE 1.7 + AOD 2 09 Feb 08:45:25 08:49:25 39° 289° (WNW) 08:53:24 437.475
Cosmos 2499 09 Feb 08:46:37 08:54:30 40° 86° (E) 09:02:33 435.465 / 435.565
GONETS M04 09 Feb 08:48:53 08:57:34 85° 95° (E) 09:06:20
SEEDS 09 Feb 08:53:13 08:57:14 41° 288° (WNW) 09:01:15 437.485
DOVE 4 09 Feb 08:53:18 08:55:47 15° 297° (WNW) 08:58:12 437.250
DELFI C3 09 Feb 08:55:25 08:58:54 27° 95° (E) 09:02:22 145.870
POLYITAN 1 09 Feb 09:08:42 09:11:28 17° 64° (ENE) 09:14:14 437.675
QB50P2 09 Feb 09:09:17 09:12:08 18° 65° (ENE) 09:15:00 145.880/145.840
AAUSAT CUBESAT 2 09 Feb 09:10:00 09:14:00 44° 288° (WNW) 09:18:00 437.432
BUGSAT 1 09 Feb 09:18:05 09:18:51 10° 60° (ENE) 09:19:36 437.445
ZACube-1 09 Feb 09:25:53 09:30:06 87° 97° (E) 09:34:23 437.345
ANTELSAT 09 Feb 09:29:44 09:34:03 74° 257° (WSW) 09:38:20 437.575/2403.000
CANX-2 09 Feb 09:32:02 09:33:59 13° 298° (WNW) 09:35:55 2200.000
FUNcube-1 09 Feb 09:35:23 09:39:35 77° 284° (WNW) 09:43:51 145.935
TIGRISAT 09 Feb 09:36:56 09:41:13 64° 259° (WSW) 09:45:29 435.000
POPSAT HIP 1 09 Feb 09:38:07 09:41:55 33° 69° (ENE) 09:45:43 437.405
NANOSAT C BR1 09 Feb 09:43:13 09:47:06 36° 70° (ENE) 09:50:59 145.865
RS-15 09 Feb 09:44:47 09:53:07 25° 100° (E) 10:01:41 29.354- 29.394
DUCHIFAT 1 09 Feb 09:45:00 09:48:52 36° 70° (ENE) 09:52:45 145.980
O/OREOS (USA 219) 09 Feb 09:47:08 09:47:56 10° 313° (NW) 09:48:44 437.305
PCSat 09 Feb 09:49:24 09:53:54 27° 109° (ESE) 09:58:26 145.827
QB50P1 09 Feb 09:50:33 09:54:36 45° 72° (ENE) 09:58:39 145.935-145.965
HUMSAT D 09 Feb 09:51:24 09:55:27 48° 99° (E) 09:59:31 437.325/437.525
AISAT 09 Feb 09:55:12 09:55:38 10° 88° (E) 09:56:04 437.250
CUBEBUG 2 09 Feb 10:04:55 10:07:55 19° 294° (WNW) 10:10:56 437.445
UWE-3 09 Feb 10:06:57 10:10:21 24° 292° (WNW) 10:13:48 435.000/436.395/437.385
Oscar 11 09 Feb 10:10:09 10:13:45 26° 292° (WNW) 10:17:21 145.826/435.025
AIST 1 09 Feb 10:10:34 10:14:53 60° 95° (E) 10:19:15
UKube-1 09 Feb 10:10:42 10:12:50 13° 91° (E) 10:14:57 .
HO-68 09 Feb 10:10:51 10:15:52 21° 306° (NW) 10:20:53 435.675
ESTCUBE 1 09 Feb 10:11:38 10:14:49 19° 92° (E) 10:17:59 437.505/2401.250
CUBEBUG 1 09 Feb 10:15:21 10:17:43 14° 91° (E) 10:20:04 437.445
AO-85 09 Feb 10:17:52 10:23:13 76° 121° (ESE) 10:28:44 145.980
DX 1 09 Feb 10:20:28 10:23:44 20° 94° (E) 10:26:58 434.975-435.025
UNISAT 6 09 Feb 10:22:38 10:25:52 20° 266° (W) 10:29:06 437.425
DELFI C3 09 Feb 10:30:24 10:33:43 25° 292° (WNW) 10:37:02 145.870
Oscar 19 09 Feb 10:38:05 10:39:48 12° 57° (ENE) 10:41:31 437.125/150
Cosmos 2499 09 Feb 10:39:04 10:47:26 49° 286° (WNW) 10:56:02 435.465 / 435.565
POLYITAN 1 09 Feb 10:42:52 10:46:57 45° 261° (W) 10:51:01 437.675
QB50P2 09 Feb 10:43:35 10:47:38 43° 261° (W) 10:51:42 145.880/145.840
GONETS M04 09 Feb 10:49:11 10:55:33 22° 298° (WNW) 11:01:59
BUGSAT 1 09 Feb 10:49:24 10:53:37 81° 258° (WSW) 10:57:49 437.445
50 SAT 09 Feb 10:51:08 10:54:51 51° 100° (E) 10:58:34 437.505
JAS-2 09 Feb 10:52:13 10:57:04 19° 58° (ENE) 11:01:39 435.910
CUSAT 1 09 Feb 11:04:38 11:08:38 18° 58° (ENE) 11:12:02 437.405
VELOX 1 09 Feb 11:11:41 11:16:07 68° 103° (ESE) 11:20:29 145.980
POPSAT HIP 1 09 Feb 11:14:27 11:17:46 22° 266° (W) 11:21:06 437.405
NANOSAT C BR1 09 Feb 11:19:50 11:22:57 20° 267° (W) 11:26:06 145.865
DUCHIFAT 1 09 Feb 11:21:35 11:24:42 20° 267° (W) 11:27:49 145.980
QB50P1 09 Feb 11:27:57 11:30:37 16° 268° (W) 11:33:18 145.935-145.965
HUMSAT D 09 Feb 11:28:12 11:30:44 16° 296° (WNW) 11:33:17 437.325/437.525
AISAT 09 Feb 11:28:16 11:32:41 77° 284° (WNW) 11:37:03 437.250
DANDE 09 Feb 11:31:10 11:36:31 21° 59° (ENE) 11:41:02 436.750
PCSat 09 Feb 11:31:52 11:37:04 46° 307° (NW) 11:42:18 145.827
YUBILEINY 09 Feb 11:40:13 11:42:26 11° 51° (NE) 11:44:40 435.215
UKube-1 09 Feb 11:45:00 11:49:16 57° 287° (WNW) 11:53:29 .
ESTCUBE 1 09 Feb 11:47:31 11:51:52 45° 289° (WNW) 11:56:11 437.505/2401.250
CUBEBUG 1 09 Feb 11:50:04 11:54:22 54° 287° (WNW) 11:58:35 437.445
AIST 1 09 Feb 11:50:47 11:52:56 13° 293° (WNW) 11:55:06
RS-15 09 Feb 11:52:43 12:03:53 88° 303° (WNW) 12:15:45 29.354- 29.394
SPROUT 09 Feb 11:55:23 11:59:37 62° 101° (E) 12:03:50 437.525
DX 1 09 Feb 11:56:01 12:00:04 38° 290° (WNW) 12:04:03 434.975-435.025
AO-85 09 Feb 12:00:03 12:04:22 23° 321° (NW) 12:08:43 145.980
TISAT 1 09 Feb 12:07:17 12:10:59 30° 96° (E) 12:14:39 437.305
SO-50 09 Feb 12:08:57 12:12:47 23° 40° (NE) 12:16:31 436.795
Oscar 19 09 Feb 12:13:05 12:18:16 80° 75° (ENE) 12:23:28 437.125/150
50 SAT 09 Feb 12:26:43 12:28:27 13° 296° (WNW) 12:30:12 437.505
AO-7 09 Feb 12:30:41 12:36:12 20° 48° (NE) 12:41:43 29.400- 29.500
JAS-2 09 Feb 12:33:34 12:41:17 85° 73° (ENE) 12:48:20 435.910
BEESAT 09 Feb 12:35:15 12:36:58 12° 89° (E) 12:38:41 436.000
Gurwin Techsat 1B 09 Feb 12:39:02 12:44:11 53° 71° (ENE) 12:49:21 435.225
Cosmos 2499 09 Feb 12:41:59 12:43:08 10° 310° (NW) 12:44:18 435.465 / 435.565
CUSAT 1 09 Feb 12:45:51 12:51:54 65° 265° (W) 12:56:24 437.405
VELOX 1 09 Feb 12:49:54 12:52:02 13° 299° (WNW) 12:54:09 145.980
DANDE 09 Feb 13:13:17 13:20:33 72° 264° (W) 13:26:01 436.750
PCSat 09 Feb 13:20:27 13:21:54 11° 329° (NNW) 13:23:21 145.827
ITAMSAT 1 09 Feb 13:20:33 13:25:42 69° 73° (ENE) 13:30:53 435.822/435.867
SWISSCUBE 09 Feb 13:25:15 13:29:49 42° 98° (E) 13:34:21 437.505
SPROUT 09 Feb 13:33:01 13:35:06 13° 298° (WNW) 13:37:10 437.525
YUBILEINY 09 Feb 13:33:02 13:41:42 54° 76° (ENE) 13:50:16 435.215
Cosmos 2504 09 Feb 13:36:42 13:40:23 13° 53° (NE) 13:43:59 435.465 / 435.565
Cosmos 2491 09 Feb 13:40:43 13:47:48 29° 82° (E) 13:54:53 435.465 / 435.565
M-CUBED/EXP-1 PRIME 09 Feb 13:43:00 13:45:11 16° 61° (ENE) 13:47:18 437.505
TISAT 1 09 Feb 13:43:10 13:46:32 24° 293° (WNW) 13:49:53 437.305
SO-50 09 Feb 13:48:56 13:53:41 61° 241° (WSW) 13:58:16 436.795
AUBIESAT-1 09 Feb 13:53:09 13:55:28 17° 62° (ENE) 13:57:44 437.475
Oscar 19 09 Feb 13:55:54 13:58:12 13° 271° (W) 14:00:29 437.125/150
ITUPSAT 1 09 Feb 14:01:37 14:06:28 85° 102° (ESE) 14:11:17 437.325
RS-15 09 Feb 14:08:01 14:18:09 35° 331° (NNW) 14:28:50 29.354- 29.394
BEESAT 09 Feb 14:10:30 14:15:19 78° 286° (WNW) 14:20:06 436.000
AO-7 09 Feb 14:19:20 14:27:41 77° 69° (ENE) 14:36:04 29.400- 29.500
Gurwin Techsat 1B 09 Feb 14:20:33 14:24:27 21° 268° (W) 14:28:22 435.225
JAS-2 09 Feb 14:21:43 14:26:52 19° 270° (W) 14:31:48 435.910
KKS-1 09 Feb 14:22:57 14:26:18 21° 94° (E) 14:29:37 437.445
ISS 09 Feb 14:45:29 14:47:36 16° 133° (SE) 14:49:42 145.825
HORYU 2 09 Feb 14:48:30 14:52:39 42° 70° (ENE) 14:56:49 437.375
DANDE 09 Feb 15:00:11 15:01:37 11° 288° (WNW) 15:03:00 436.750
ITAMSAT 1 09 Feb 15:02:42 15:05:40 15° 270° (W) 15:08:40 435.822/435.867
SWISSCUBE 09 Feb 15:03:36 15:07:23 23° 295° (WNW) 15:11:08 437.505
M-CUBED/EXP-1 PRIME 09 Feb 15:16:13 15:19:38 36° 255° (WSW) 15:22:52 437.505
AUBIESAT-1 09 Feb 15:26:34 15:29:53 33° 256° (WSW) 15:33:03 437.475
Cosmos 2504 09 Feb 15:27:20 15:35:57 61° 77° (ENE) 15:43:57 435.465 / 435.565
YUBILEINY 09 Feb 15:30:24 15:38:06 35° 276° (W) 15:45:44 435.215
Cosmos 2491 09 Feb 15:35:23 15:43:59 63° 282° (WNW) 15:52:39 435.465 / 435.565
ITUPSAT 1 09 Feb 15:41:36 15:43:37 13° 301° (WNW) 15:45:38 437.325
STARS 09 Feb 15:42:52 15:47:16 80° 104° (ESE) 15:51:37 437.465
MOZHAYETS 4 09 Feb 15:48:24 15:53:02 67° 101° (ESE) 15:57:39
BEESAT 09 Feb 15:52:09 15:52:16 10° 303° (WNW) 15:52:23 436.000
BRITE-PL 09 Feb 15:54:35 15:56:21 11° 57° (ENE) 15:58:06 437.365/2234.400
KKS-1 09 Feb 15:58:53 16:03:01 38° 290° (WNW) 16:07:06 437.445
AO-7 09 Feb 16:14:49 16:21:13 24° 267° (W) 16:27:40 29.400- 29.500
ISS 09 Feb 16:20:29 16:23:43 66° 329° (NNW) 16:26:57 145.825
RS-15 09 Feb 16:26:08 16:35:30 26° 6° (N) 16:45:09 29.354- 29.394
HORYU 2 09 Feb 16:26:15 16:29:24 19° 267° (W) 16:32:33 437.375
CUBESAT XI-V 09 Feb 16:28:42 16:32:03 19° 92° (E) 16:35:23 437.345
O/OREOS (USA 219) 09 Feb 16:33:21 16:37:16 27° 57° (ENE) 16:41:10 437.305
CUTE-I 09 Feb 16:34:24 16:39:23 43° 69° (ENE) 16:44:25 437.470
LilacSat-2 09 Feb 16:35:41 16:38:58 28° 70° (ENE) 16:42:15 437.200
BEESAT 3 09 Feb 16:42:57 16:46:47 49° 119° (ESE) 16:50:39 437.485
Cubesat XI-IV 09 Feb 16:47:45 16:52:56 56° 71° (ENE) 16:58:10 437.490
GOMX 1 09 Feb 17:00:04 17:04:07 22° 65° (ENE) 17:08:01 467.674
BEESAT 2 09 Feb 17:06:18 17:10:14 57° 120° (ESE) 17:14:12 435.950
HO-68 09 Feb 17:07:31 17:11:26 16° 50° (NE) 17:15:19 435.675
AO-85 09 Feb 17:09:44 17:13:17 18° 34° (NE) 17:16:40 145.980
Cosmos 2504 09 Feb 17:21:36 17:28:41 30° 278° (W) 17:35:25 435.465 / 435.565
STARS 09 Feb 17:21:38 17:23:00 11° 300° (WNW) 17:24:22 437.465
MOZHAYETS 4 09 Feb 17:27:08 17:29:40 15° 298° (WNW) 17:32:12
BRITE-PL 09 Feb 17:28:13 17:33:53 70° 74° (ENE) 17:39:26 437.365/2234.400
Cosmos 2491 09 Feb 17:39:09 17:42:54 13° 306° (NW) 17:46:40 435.465 / 435.565
ISS 09 Feb 17:58:05 18:00:37 21° 348° (NNW) 18:03:10 145.825
CUTE 1.7 + AOD 2 09 Feb 18:04:40 18:07:17 16° 64° (ENE) 18:09:55 437.475
CUBESAT XI-V 09 Feb 18:05:10 18:09:41 46° 289° (WNW) 18:14:09 437.345
LilacSat-2 09 Feb 18:10:22 18:13:18 21° 266° (W) 18:16:15 437.200
SEEDS 09 Feb 18:12:00 18:14:21 15° 63° (ENE) 18:16:41 437.485
O/OREOS (USA 219) 09 Feb 18:12:34 18:16:42 34° 255° (WSW) 18:20:49 437.305
CUTE-I 09 Feb 18:15:12 18:19:35 26° 266° (W) 18:24:00 437.470
DOVE 4 09 Feb 18:19:45 18:24:47 61° 74° (ENE) 18:29:34 437.250
BEESAT 3 09 Feb 18:21:51 18:24:48 20° 317° (NW) 18:27:47 437.485
AAUSAT CUBESAT 2 09 Feb 18:27:54 18:29:54 13° 63° (ENE) 18:31:54 437.432
Cubesat XI-IV 09 Feb 18:29:34 18:33:21 20° 268° (W) 18:37:11 437.490
PCSat 09 Feb 18:35:31 18:40:18 30° 48° (NE) 18:45:03 145.827
STRAND 1 09 Feb 18:36:16 18:41:15 46° 99° (E) 18:46:11 437.568
GOMX 1 09 Feb 18:36:32 18:41:50 53° 260° (W) 18:46:56 467.674
Cosmos 2499 09 Feb 18:38:28 18:42:54 15° 55° (NE) 18:47:10 435.465 / 435.565
RS-15 09 Feb 18:40:39 18:52:08 46° 39° (NE) 19:03:50 29.354- 29.394
BEESAT 2 09 Feb 18:45:39 18:48:28 18° 318° (NW) 18:51:19 435.950
CANX-2 09 Feb 18:47:55 18:52:00 51° 73° (ENE) 18:56:07 2200.000
AO-85 09 Feb 18:49:28 18:54:41 83° 55° (NE) 18:59:26 145.980
HO-68 09 Feb 18:50:48 18:57:55 72° 70° (ENE) 19:05:05 435.675
GONETS M04 09 Feb 18:58:02 19:06:23 45° 73° (ENE) 19:14:44
AIST 2 09 Feb 18:58:32 19:02:42 89° 139° (SE) 19:06:55 435.215
BRITE-PL 09 Feb 19:09:05 19:12:47 18° 270° (W) 19:16:26 437.365/2234.400
CINEMA 3 09 Feb 19:17:00 19:21:39 81° 78° (ENE) 19:26:06 145.822/145.860
CUBEBUG 2 09 Feb 19:26:41 19:30:39 36° 71° (ENE) 19:34:32 437.445
UWE-3 09 Feb 19:28:28 19:32:05 28° 69° (ENE) 19:35:39 435.000/436.395/437.385
Oscar 11 09 Feb 19:29:43 19:33:19 27° 68° (ENE) 19:36:56 145.826/435.025
COMPASS 1 09 Feb 19:31:47 19:35:55 79° 76° (ENE) 19:40:07 437.405
ISS 09 Feb 19:35:25 19:37:54 20° 9° (N) 19:40:21 145.825
CUTE 1.7 + AOD 2 09 Feb 19:38:41 19:42:45 48° 261° (W) 19:46:52 437.475
DELFI C3 09 Feb 19:43:16 19:46:06 19° 66° (ENE) 19:48:57 145.870
SEEDS 09 Feb 19:45:33 19:49:37 53° 260° (W) 19:53:45 437.485
PRISM 09 Feb 19:48:35 19:52:48 83° 105° (ESE) 19:56:57 437.425
DOVE 4 09 Feb 19:59:39 20:02:48 16° 269° (W) 20:05:52 437.250
AAUSAT CUBESAT 2 09 Feb 20:00:51 20:04:55 59° 260° (W) 20:09:03 437.432
STRAND 1 09 Feb 20:16:04 20:20:08 24° 296° (WNW) 20:24:12 437.568
AIST 1 09 Feb 20:17:38 20:20:30 17° 70° (ENE) 20:23:20
PCSat 09 Feb 20:18:42 20:23:52 45° 247° (WSW) 20:29:00 145.827
ZACube-1 09 Feb 20:22:29 20:26:42 76° 75° (ENE) 20:30:52 437.345
CANX-2 09 Feb 20:25:55 20:28:11 14° 270° (W) 20:30:27 2200.000
Cosmos 2499 09 Feb 20:29:26 20:37:55 70° 79° (E) 20:45:42 435.465 / 435.565
FUNcube-1 09 Feb 20:31:42 20:35:54 89° 247° (WSW) 20:40:05 145.935
AO-85 09 Feb 20:32:09 20:34:21 13° 255° (WSW) 20:36:28 145.980
AIST 2 09 Feb 20:39:33 20:41:49 14° 322° (NW) 20:44:06 435.215
HO-68 09 Feb 20:40:52 20:46:14 22° 268° (W) 20:51:39 435.675
HUMSAT D 09 Feb 20:43:48 20:47:34 37° 71° (ENE) 20:51:20 437.325/437.525
AISAT 09 Feb 20:53:07 20:54:52 12° 60° (ENE) 20:56:38 437.250
RS-15 09 Feb 20:53:23 21:05:23 68° 244° (WSW) 21:17:32 29.354- 29.394
GONETS M04 09 Feb 20:55:04 21:03:08 43° 273° (W) 21:11:14
CUBEBUG 2 09 Feb 21:04:11 21:07:23 20° 266° (W) 21:10:33 437.445
UWE-3 09 Feb 21:04:56 21:08:30 26° 264° (W) 21:12:04 435.000/436.395/437.385
Oscar 11 09 Feb 21:05:39 21:09:21 28° 264° (W) 21:13:07 145.826/435.025
UKube-1 09 Feb 21:06:34 21:08:55 14° 62° (ENE) 21:11:15 .
ISS 09 Feb 21:11:41 21:14:51 53° 28° (NNE) 21:18:03 145.825
ESTCUBE 1 09 Feb 21:12:17 21:15:35 20° 64° (ENE) 21:18:54 437.505/2401.250
CUBEBUG 1 09 Feb 21:12:35 21:15:07 15° 62° (ENE) 21:17:38 437.445
DX 1 09 Feb 21:17:03 21:20:22 21° 65° (ENE) 21:23:41 434.975-435.025
DELFI C3 09 Feb 21:17:08 21:20:47 35° 263° (W) 21:24:28 145.870
ANTELSAT 09 Feb 21:20:57 21:24:13 20° 94° (E) 21:27:31 437.575/2403.000
PRISM 09 Feb 21:26:54 21:27:28 10° 301° (WNW) 21:28:02 437.425
TIGRISAT 09 Feb 21:27:46 21:31:13 23° 95° (E) 21:34:42 435.000
50 SAT 09 Feb 21:32:35 21:35:46 28° 70° (ENE) 21:39:01 437.505
AIST 1 09 Feb 21:54:12 21:58:21 43° 267° (W) 22:02:26
VELOX 1 09 Feb 22:09:39 22:14:04 68° 74° (ENE) 22:18:32 145.980
UNISAT 6 09 Feb 22:11:43 22:16:03 72° 102° (ESE) 22:20:27 437.425
HUMSAT D 09 Feb 22:20:32 22:23:21 18° 267° (W) 22:26:11 437.325/437.525
Cosmos 2499 09 Feb 22:23:48 22:30:07 25° 281° (W) 22:36:08 435.465 / 435.565
AISAT 09 Feb 22:26:16 22:30:44 78° 256° (WSW) 22:35:14 437.250
POLYITAN 1 09 Feb 22:27:11 22:30:42 25° 95° (E) 22:34:11 437.675
QB50P2 09 Feb 22:27:48 22:31:23 26° 95° (E) 22:34:56 145.880/145.840
BUGSAT 1 09 Feb 22:32:09 22:34:02 13° 91° (E) 22:35:53 437.445
UKube-1 09 Feb 22:40:11 22:44:28 60° 259° (WSW) 22:48:47 .
CUBEBUG 1 09 Feb 22:46:33 22:50:55 59° 259° (W) 22:55:20 437.445
ESTCUBE 1 09 Feb 22:47:47 22:52:06 44° 261° (W) 22:56:27 437.505/2401.250
ISS 09 Feb 22:48:36 22:51:05 20° 225° (SW) 22:53:33 145.825
SPROUT 09 Feb 22:49:48 22:53:59 53° 73° (ENE) 22:58:11 437.525
DX 1 09 Feb 22:52:13 22:56:19 38° 262° (W) 23:00:27 434.975-435.025
ANTELSAT 09 Feb 22:57:03 23:01:03 37° 290° (WNW) 23:05:07 437.575/2403.000
POPSAT HIP 1 09 Feb 22:57:13 23:01:20 53° 100° (E) 23:05:26 437.405
TISAT 1 09 Feb 23:00:05 23:03:37 26° 68° (ENE) 23:07:09 437.305
NANOSAT C BR1 09 Feb 23:02:00 23:06:09 59° 101° (E) 23:10:16 145.865
DUCHIFAT 1 09 Feb 23:03:29 23:07:38 58° 101° (E) 23:11:44 145.980
TIGRISAT 09 Feb 23:04:05 23:07:58 33° 290° (WNW) 23:11:54 435.000
50 SAT 09 Feb 23:07:06 23:09:50 19° 266° (W) 23:12:36 437.505
RS-15 09 Feb 23:09:15 23:15:28 16° 265° (W) 23:21:44 29.354- 29.394
QB50P1 09 Feb 23:09:49 23:14:02 75° 101° (E) 23:18:14 145.935-145.965
ITUPSAT 1 09 Feb 23:34:20 23:36:45 14° 59° (ENE) 23:39:09 437.325
BEESAT 09 Feb 23:42:12 23:45:11 17° 61° (ENE) 23:48:10 436.000
PHONESAT 2.4 09 Feb 23:42:39 23:43:19 10° 148° (SSE) 23:43:58 2401.200-2431.200
VELOX 1 09 Feb 23:49:15 23:51:00 12° 270° (W) 23:52:47 145.980
Cosmos 2491 09 Feb 23:49:42 23:54:21 15° 56° (NE) 23:58:59 435.465 / 435.565
UNISAT 6 09 Feb 23:50:30 23:52:13 12° 299° (WNW) 23:53:57 437.425
POLYITAN 1 10 Feb 00:02:53 00:06:30 28° 292° (WNW) 00:10:06 437.675
QB50P2 10 Feb 00:03:35 00:07:09 27° 292° (WNW) 00:10:43 145.880/145.840
BUGSAT 1 10 Feb 00:05:49 00:09:45 51° 287° (WNW) 00:13:38 437.445
CUSAT 1 10 Feb 00:06:21 00:12:36 26° 84° (E) 00:18:52 437.405
Oscar 19 10 Feb 00:24:15 00:28:30 26° 94° (E) 00:32:42 437.125/150
SPROUT 10 Feb 00:27:57 00:30:17 14° 269° (W) 00:32:37 437.525
SWISSCUBE 10 Feb 00:32:31 00:37:09 53° 72° (ENE) 00:41:49 437.505
POPSAT HIP 1 10 Feb 00:34:19 00:36:42 15° 297° (WNW) 00:39:06 437.405
TISAT 1 10 Feb 00:35:35 00:39:13 28° 264° (W) 00:42:52 437.305
DANDE 10 Feb 00:38:45 00:45:01 27° 82° (E) 00:51:42 436.750
NANOSAT C BR1 10 Feb 00:39:18 00:41:25 14° 298° (WNW) 00:43:32 145.865
DUCHIFAT 1 10 Feb 00:40:46 00:42:52 14° 298° (WNW) 00:44:59 145.980
YUBILEINY 10 Feb 00:47:27 00:48:31 10° 70° (ENE) 00:49:36 435.215
QB50P1 10 Feb 00:48:01 00:49:14 11° 299° (WNW) 00:50:26 145.935-145.965
Gurwin Techsat 1B 10 Feb 00:55:06 00:58:53 19° 92° (E) 01:02:39 435.225
BEESAT 3 10 Feb 00:59:42 01:03:28 40° 50° (NE) 01:07:12 437.485
ITUPSAT 1 10 Feb 01:09:12 01:13:57 75° 257° (WSW) 01:18:46 437.325
PHONESAT 2.4 10 Feb 01:16:59 01:19:59 33° 164° (SSE) 01:23:00 2401.200-2431.200
BEESAT 10 Feb 01:17:48 01:22:29 61° 259° (WSW) 01:27:14 436.000
KKS-1 10 Feb 01:22:03 01:25:31 23° 65° (ENE) 01:28:59 437.445
BEESAT 2 10 Feb 01:23:48 01:27:41 46° 52° (NE) 01:31:30 435.950
JAS-2 10 Feb 01:28:17 01:34:00 67° 102° (ESE) 01:39:13 435.910
ITAMSAT 1 10 Feb 01:33:06 01:37:11 22° 93° (E) 01:41:14 435.822/435.867
AIST 2 10 Feb 01:42:16 01:44:05 12° 36° (NE) 01:45:54 435.215
Cosmos 2491 10 Feb 01:44:17 01:53:02 70° 79° (E) 02:01:46 435.465 / 435.565
CUSAT 1 10 Feb 01:46:12 01:54:12 75° 281° (WNW) 02:02:15 437.405
Oscar 19 10 Feb 02:03:09 02:07:57 40° 291° (WNW) 02:12:42 437.125/150
SWISSCUBE 10 Feb 02:12:10 02:15:16 17° 268° (W) 02:18:24 437.505
DANDE 10 Feb 02:19:25 02:27:11 73° 282° (WNW) 02:35:45 436.750
AO-7 10 Feb 02:21:02 02:27:18 23° 92° (E) 02:33:30 29.400- 29.500
Gurwin Techsat 1B 10 Feb 02:33:58 02:39:11 56° 289° (WNW) 02:44:22 435.225
YUBILEINY 10 Feb 02:34:44 02:43:17 60° 91° (E) 02:51:54 435.215
BEESAT 3 10 Feb 02:38:06 02:40:57 19° 248° (WSW) 02:43:47 437.485
STARS 10 Feb 02:40:11 02:44:35 79° 75° (ENE) 02:49:00 437.465
MOZHAYETS 4 10 Feb 02:51:00 02:55:31 69° 75° (ENE) 03:00:06
PHONESAT 2.4 10 Feb 02:53:48 02:57:01 54° 180° (S) 03:00:14 2401.200-2431.200
KKS-1 10 Feb 02:57:44 03:01:52 37° 262° (W) 03:06:03 437.445
BEESAT 2 10 Feb 03:02:37 03:05:13 17° 249° (WSW) 03:07:48 435.950
ITAMSAT 1 10 Feb 03:11:51 03:16:52 48° 291° (WNW) 03:21:53 435.822/435.867
JAS-2 10 Feb 03:14:41 03:18:24 18° 302° (WNW) 03:21:56 435.910
AIST 2 10 Feb 03:19:08 03:23:18 77° 57° (ENE) 03:27:24 435.215
CUSAT 1 10 Feb 03:32:34 03:37:45 18° 301° (WNW) 03:42:54 437.405
CUBESAT XI-V 10 Feb 03:33:01 03:36:34 22° 65° (ENE) 03:40:08 437.345
Cosmos 2491 10 Feb 03:42:18 03:49:03 26° 279° (W) 03:55:50 435.465 / 435.565
SO-50 10 Feb 04:03:44 04:08:12 36° 115° (ESE) 04:12:43 436.795
Cosmos 2504 10 Feb 04:05:27 04:13:36 51° 89° (E) 04:22:04 435.465 / 435.565
DANDE 10 Feb 04:06:26 04:11:43 18° 303° (WNW) 04:17:10 436.750
AO-7 10 Feb 04:12:32 04:20:53 79° 291° (WNW) 04:29:10 29.400- 29.500
HORYU 2 10 Feb 04:14:31 04:18:59 74° 102° (ESE) 04:23:26 437.375
STRAND 1 10 Feb 04:19:00 04:19:50 10° 55° (NE) 04:20:40 437.568
M-CUBED/EXP-1 PRIME 10 Feb 04:28:40 04:31:59 61° 291° (WNW) 04:35:30 437.505
PHONESAT 2.4 10 Feb 04:31:03 04:34:01 32° 197° (SSW) 04:36:59 2401.200-2431.200
MOZHAYETS 4 10 Feb 04:31:22 04:33:11 12° 271° (W) 04:35:01
YUBILEINY 10 Feb 04:32:58 04:40:35 32° 292° (WNW) 04:48:19 435.215
AUBIESAT-1 10 Feb 04:38:20 04:41:42 57° 291° (WNW) 04:45:15 437.475
CUTE-I 10 Feb 04:51:38 04:54:46 16° 90° (E) 04:57:54 437.470
AIST 2 10 Feb 05:00:26 05:01:09 10° 253° (WSW) 05:01:53 435.215
Cubesat XI-IV 10 Feb 05:04:45 05:08:44 21° 92° (E) 05:12:42 437.490
CUBESAT XI-V 10 Feb 05:09:12 05:13:40 43° 262° (W) 05:18:11 437.345
BRITE-PL 10 Feb 05:33:59 05:37:18 19° 90° (E) 05:40:28 437.365/2234.400
LilacSat-2 10 Feb 05:42:00 05:45:30 36° 97° (E) 05:49:01 437.200
SO-50 10 Feb 05:44:14 05:48:43 34° 314° (NW) 05:53:15 436.795
STRAND 1 10 Feb 05:53:00 05:58:05 73° 74° (ENE) 06:03:13 437.568
HORYU 2 10 Feb 05:53:05 05:54:58 13° 300° (WNW) 05:56:50 437.375
Cosmos 2504 10 Feb 05:59:15 06:07:11 39° 289° (WNW) 06:15:25 435.465 / 435.565
AO-7 10 Feb 06:06:50 06:12:24 20° 312° (NW) 06:17:58 29.400- 29.500
DOVE 4 10 Feb 06:19:57 06:21:46 12° 89° (E) 06:23:34 437.250
HO-68 10 Feb 06:21:14 06:23:08 11° 85° (E) 06:25:02 435.675
CUTE-I 10 Feb 06:29:59 06:35:21 71° 287° (WNW) 06:40:41 437.470
GOMX 1 10 Feb 06:38:06 06:42:19 41° 97° (E) 06:46:18 467.674
PRISM 10 Feb 06:38:45 06:42:52 67° 74° (ENE) 06:47:03 437.425
Cubesat XI-IV 10 Feb 06:43:53 06:49:08 54° 289° (WNW) 06:54:20 437.490
O/OREOS (USA 219) 10 Feb 06:47:06 06:50:41 24° 102° (ESE) 06:54:16 437.305
BRITE-PL 10 Feb 07:11:33 07:16:07 44° 289° (WNW) 07:20:20 437.365/2234.400
CINEMA 3 10 Feb 07:11:57 07:14:29 16° 92° (E) 07:17:02 145.822/145.860
COMPASS 1 10 Feb 07:15:48 07:17:26 12° 89° (E) 07:19:04 437.405
LilacSat-2 10 Feb 07:17:06 07:19:34 17° 294° (WNW) 07:22:02 437.200
Cosmos 2499 10 Feb 07:21:41 07:22:40 10° 70° (ENE) 07:23:39 435.465 / 435.565
CUTE 1.7 + AOD 2 10 Feb 07:22:52 07:26:30 26° 95° (E) 07:30:06 437.475
SEEDS 10 Feb 07:28:57 07:32:22 23° 94° (E) 07:35:46 437.485
STRAND 1 10 Feb 07:35:10 07:37:47 14° 271° (W) 07:40:27 437.568
AAUSAT CUBESAT 2 10 Feb 07:42:59 07:46:05 20° 93° (E) 07:49:11 437.432
DOVE 4 10 Feb 07:55:45 07:59:55 55° 287° (WNW) 08:03:58 437.250
CANX-2 10 Feb 08:07:31 08:11:50 88° 286° (WNW) 08:16:08 2200.000
ZACube-1 10 Feb 08:11:21 08:13:21 13° 91° (E) 08:15:22 437.345
CUTE-I 10 Feb 08:13:08 08:14:26 11° 305° (NW) 08:15:44 437.470
